Location: Kershaw
(34.5481°N, 80.5823°W)
Time: 10:43:50
(UTC+00:00)

Altair - Pass Details

Date: 07 October 2022
Orbit: 1501 x 1682 km, 47.2° (Epoch: 30 November)

Event Time Altitude Azimuth Distance (km) Brightness Sun altitude
Rises 06:39:10 0° 193° (SSW) 4,660 - -54.4°
Reaches altitude 10° 06:42:42 10° 182° (S) 3,702 - -54.0°
Maximum altitude 06:50:19 29° 127° (SE) 2,588 - -52.9°
Exits shadow 06:54:14 22° 92° (E) 2,964 9.1 -52.3°
Drops below altitude 10° 06:58:09 10° 73° (ENE) 3,830 10.0 -51.7°
Sets 07:01:51 0° 62° (ENE) 4,847 10.7 -51.2°
